Location: São Paulo
(23.5507°S, 46.6334°W)
Time: 10:03:51
(UTC-03:00)

Hubble Space Telescope - Pass Details

Date: 25 July 2021
Orbit: 535 x 539 km, 28.5° (Epoch: 24 September)

Event Time Altitude Azimuth Distance (km) Brightness Sun altitude
Exits shadow 05:24:15 - 327° (NNW) 1,822 3.3 -18.5°
Reaches altitude 10° 05:24:23 10° 328° (NNW) 1,781 3.2 -18.4°
Maximum altitude 05:27:54 27° 26° (NNE) 1,046 2.6 -17.6°
Drops below altitude 10° 05:31:26 10° 85° (E) 1,793 4.7 -16.9°
Sets 05:33:57 0° 97° (E) 2,688 5.7 -16.3°
